sat.trackr.live / text

‹ back to catalog

STARLINK-30502

NORAD 57973 · 2023-151K

PAYLOAD ACTIVE UNKNOWN

§ Identity

Operator
Country
US
Launch date
2023-09-30
Launch site
AFETR
Launch vehicle
Mass (kg)
RCS (m²)

Purposes: comms

External: N2YO · Heavens-Above · Gunter

§ Orbital elements

Epoch: 2026-09-20T10:49:51.621024Z

Period
94.27 min
Inclination
43.0016°
Eccentricity
0.0001141
Mean motion
15.27578313 rev/d
Perigee alt
482.3 km
Apogee alt
483.8 km
Semi-major
6,861.2 km
B*
-4.3856e-5
RAAN
316.0026°
Arg perigee
267.9430°
Mean anomaly
92.1291°
Rev number
16,555

§ Raw data

STARLINK-305021 57973U 23151K   26263.45129191 -.00001469  00000+0 -43856-4 0  99952 57973  43.0016 316.0026 0001141 267.9430  92.1291 15.27578313165551

JSON: /api/v1/satellites/57973 · /tle

For live sub-satellite position, see the globe view (requires WebGL).

§ Visibility from observer

Set your observer location to see the next 7 days of passes ≥ 10°. The values pass through the URL so the page stays shareable.

No JS? Fill the form by hand. The geolocation button needs JavaScript.